| time (UTC) | temp F | wind direction | speed knots | gust knots | rain 1hr in | rain 24hr in | rain mn in | humidity % | barometer mb |
| 20260507030601 | 51 | 0 | 0.0 | 0.0 | 0.00 | 0.28 | 0.28 | 84 | 1011.7 |
| 20260507030100 | 51 | 0 | 0.0 | 0.0 | 0.00 | 0.28 | 0.28 | 84 | 1011.6 |
| 20260507025600 | 51 | 0 | 0.0 | 0.0 | 0.00 | 0.28 | 0.28 | 84 | 1011.8 |
| 20260507025103 | 51 | 0 | 0.0 | 0.0 | 0.00 | 0.28 | 0.28 | 84 | 1011.7 |
| 20260507024604 | 51 | 0 | 0.0 | 0.9 | 0.00 | 0.28 | 0.28 | 84 | 1011.9 |
| 20260507024100 | 51 | 0 | 0.0 | 0.9 | 0.00 | 0.28 | 0.28 | 84 | 1012.0 |
| 20260507023600 | 51 | 0 | 0.0 | 0.9 | 0.00 | 0.28 | 0.28 | 84 | 1011.9 |
| 20260507023101 | 51 | 0 | 0.0 | 0.0 | 0.00 | 0.28 | 0.28 | 84 | 1011.7 |
| 20260507022600 | 51 | 0 | 0.0 | 0.9 | 0.00 | 0.28 | 0.28 | 84 | 1012.1 |
| 20260507022100 | 51 | 0 | 0.0 | 0.9 | 0.00 | 0.28 | 0.28 | 84 | 1012.4 |
| 20260507021602 | 51 | 0 | 0.0 | 0.9 | 0.00 | 0.28 | 0.28 | 84 | 1012.3 |
| 20260507021100 | 51 | 0 | 0.0 | 0.9 | 0.00 | 0.28 | 0.28 | 84 | 1012.5 |
| 20260507020602 | 51 | 0 | 0.0 | 0.9 | 0.00 | 0.28 | 0.28 | 84 | 1012.4 |
| 20260507020101 | 51 | 83 | 0.0 | 0.9 | 0.00 | 0.28 | 0.28 | 84 | 1012.5 |
| 20260507015557 | 51 | 0 | 0.0 | 0.9 | 0.00 | 0.28 | 0.28 | 84 | 1012.4 |
| 20260507015101 | 51 | 0 | 0.0 | 1.7 | 0.00 | 0.28 | 0.28 | 84 | 1012.6 |
| 20260507014601 | 51 | 0 | 0.0 | 1.7 | 0.00 | 0.28 | 0.28 | 84 | 1012.5 |
| 20260507014101 | 51 | 46 | 0.0 | 1.7 | 0.00 | 0.28 | 0.28 | 83 | 1012.7 |
| 20260507013604 | 52 | 0 | 0.0 | 1.7 | 0.00 | 0.28 | 0.28 | 84 | 1012.5 |
| 20260507013101 | 52 | 0 | 0.0 | 1.7 | 0.00 | 0.28 | 0.28 | 84 | 1012.4 |
| 20260507012601 | 52 | 77 | 0.0 | 1.7 | 0.00 | 0.28 | 0.28 | 84 | 1012.5 |
| 20260507012100 | 52 | 0 | 0.0 | 1.7 | 0.00 | 0.28 | 0.28 | 84 | 1012.6 |
| 20260507011601 | 52 | 0 | 0.0 | 1.7 | 0.00 | 0.28 | 0.28 | 84 | 1012.5 |
| 20260507011100 | 52 | 137 | 0.0 | 1.7 | 0.00 | 0.28 | 0.28 | 84 | 1012.4 |
| 20260507010601 | 52 | 0 | 0.0 | 1.7 | 0.00 | 0.28 | 0.28 | 84 | 1012.4 |
| 20260507010114 | 52 | 89 | 0.0 | 2.6 | 0.00 | 0.28 | 0.28 | 84 | 1012.1 |
| 20260507005602 | 52 | 132 | 0.0 | 2.6 | 0.00 | 0.28 | 0.28 | 83 | 1012.0 |
| 20260507005104 | 52 | 0 | 0.0 | 2.6 | 0.00 | 0.28 | 0.28 | 83 | 1012.0 |
| 20260507004601 | 52 | 230 | 0.0 | 2.6 | 0.00 | 0.28 | 0.28 | 84 | 1012.0 |
| 20260507004101 | 52 | 65 | 0.0 | 2.6 | 0.00 | 0.28 | 0.28 | 84 | 1011.7 |
| 20260507003559 | 52 | 0 | 0.0 | 4.3 | 0.00 | 0.28 | 0.28 | 84 | 1011.6 |
| 20260507003101 | 52 | 0 | 0.0 | 4.3 | 0.00 | 0.28 | 0.28 | 83 | 1011.5 |
| 20260507002559 | 53 | 0 | 0.9 | 4.3 | 0.00 | 0.28 | 0.28 | 83 | 1011.4 |
| 20260507002059 | 53 | 0 | 0.0 | 3.5 | 0.00 | 0.28 | 0.28 | 83 | 1011.3 |
| 20260507001602 | 53 | 68 | 0.0 | 3.5 | 0.00 | 0.28 | 0.28 | 83 | 1011.1 |
| 20260507001058 | 53 | 67 | 0.0 | 5.2 | 0.00 | 0.28 | 0.28 | 83 | 1011.0 |
| 20260507000602 | 53 | 0 | 0.0 | 5.2 | 0.00 | 0.28 | 0.28 | 83 | 1010.9 |
| 20260507000106 | 53 | 0 | 0.9 | 5.2 | 0.00 | 0.28 | 0.28 | 83 | 1010.9 |
| 20260506235559 | 53 | 0 | 0.0 | 4.3 | 0.00 | 0.28 | 0.28 | 83 | 1010.9 |
| 20260506235101 | 53 | 101 | 1.7 | 5.2 | 0.00 | 0.28 | 0.28 | 82 | 1010.9 |
| 20260506234621 | 54 | 0 | 0.0 | 5.2 | 0.00 | 0.28 | 0.28 | 82 | 1010.6 |
| 20260506234102 | 54 | 0 | 0.9 | 3.5 | 0.00 | 0.28 | 0.28 | 82 | 1010.6 |
| 20260506233600 | 54 | 0 | 0.0 | 3.5 | 0.00 | 0.28 | 0.28 | 82 | 1010.6 |
| 20260506233110 | 55 | 0 | 0.0 | 4.3 | 0.00 | 0.28 | 0.28 | 83 | 1010.5 |
| 20260506232559 | 55 | 0 | 1.7 | 4.3 | 0.00 | 0.28 | 0.28 | 83 | 1010.3 |
| 20260506232059 | 55 | 58 | 0.0 | 3.5 | 0.00 | 0.28 | 0.28 | 83 | 1010.2 |
| 20260506231558 | 55 | 0 | 0.9 | 3.5 | 0.00 | 0.28 | 0.28 | 83 | 1010.1 |
| 20260506231059 | 56 | 0 | 0.0 | 0.9 | 0.00 | 0.28 | 0.28 | 83 | 1010.1 |
| 20260506230558 | 56 | 0 | 0.0 | 3.5 | 0.00 | 0.28 | 0.28 | 83 | 1010.1 |
| 20260506230100 | 56 | 0 | 0.0 | 3.5 | 0.00 | 0.28 | 0.28 | 82 | 1010.0 |
| 20260506225559 | 56 | 35 | 0.0 | 6.1 | 0.00 | 0.28 | 0.28 | 83 | 1009.9 |
| 20260506225059 | 57 | 0 | 0.0 | 6.1 | 0.00 | 0.28 | 0.28 | 83 | 1009.8 |
| 20260506224559 | 57 | 0 | 1.7 | 4.3 | 0.00 | 0.28 | 0.28 | 83 | 1009.6 |
| 20260506224059 | 57 | 0 | 0.9 | 4.3 | 0.00 | 0.28 | 0.28 | 83 | 1009.5 |
| 20260506223558 | 57 | 46 | 0.9 | 5.2 | 0.00 | 0.28 | 0.28 | 83 | 1009.3 |
| 20260506223101 | 58 | 319 | 0.9 | 7.0 | 0.00 | 0.28 | 0.28 | 83 | 1009.0 |
| 20260506222602 | 59 | 0 | 0.9 | 8.7 | 0.00 | 0.28 | 0.28 | 83 | 1008.8 |
| 20260506222059 | 60 | 25 | 1.7 | 8.7 | 0.00 | 0.28 | 0.28 | 83 | 1008.7 |
| 20260506221612 | 61 | 336 | 1.7 | 8.7 | 0.00 | 0.28 | 0.28 | 82 | 1008.5 |
| 20260506221059 | 63 | 341 | 2.6 | 8.7 | 0.00 | 0.28 | 0.28 | 82 | 1008.3 |
| 20260506220601 | 64 | 276 | 0.9 | 5.2 | 0.00 | 0.28 | 0.28 | 87 | 1008.0 |
| 20260506220100 | 64 | 286 | 0.9 | 5.2 | 0.00 | 0.28 | 0.28 | 87 | 1007.8 |
| 20260506215603 | 64 | 0 | 0.9 | 4.3 | 0.00 | 0.28 | 0.28 | 86 | 1007.7 |
| 20260506215103 | 64 | 309 | 0.9 | 4.3 | 0.00 | 0.28 | 0.28 | 87 | 1007.5 |
| 20260506214604 | 65 | 266 | 0.0 | 4.3 | 0.00 | 0.28 | 0.28 | 86 | 1007.6 |
| 20260506214105 | 64 | 288 | 0.0 | 5.2 | 0.00 | 0.28 | 0.28 | 87 | 1007.6 |
| 20260506213558 | 64 | 290 | 1.7 | 5.2 | 0.00 | 0.28 | 0.28 | 88 | 1007.4 |
| 20260506213100 | 64 | 278 | 0.9 | 5.2 | 0.00 | 0.28 | 0.28 | 89 | 1007.5 |
| 20260506212559 | 64 | 0 | 0.0 | 3.5 | 0.00 | 0.28 | 0.28 | 90 | 1007.3 |
| 20260506212059 | 63 | 285 | 0.9 | 4.3 | 0.00 | 0.28 | 0.28 | 92 | 1007.3 |
| 20260506211600 | 63 | 0 | 0.9 | 4.3 | 0.00 | 0.28 | 0.28 | 93 | 1007.3 |
| 20260506211059 | 63 | 12 | 0.9 | 5.2 | 0.00 | 0.28 | 0.28 | 94 | 1007.2 |
| 20260506210559 | 63 | 134 | 0.0 | 6.1 | 0.00 | 0.28 | 0.28 | 95 | 1007.1 |
| 20260506210100 | 63 | 241 | 2.6 | 7.0 | 0.00 | 0.28 | 0.28 | 94 | 1007.1 |
| 20260506205558 | 63 | 246 | 1.7 | 7.8 | 0.00 | 0.28 | 0.28 | 95 | 1007.1 |
| 20260506205058 | 63 | 296 | 2.6 | 7.8 | 0.00 | 0.28 | 0.28 | 95 | 1007.0 |
| 20260506204611 | 63 | 233 | 0.9 | 7.0 | 0.00 | 0.28 | 0.28 | 95 | 1006.9 |
| 20260506204100 | 63 | 285 | 2.6 | 7.0 | 0.00 | 0.28 | 0.28 | 95 | 1006.9 |
| 20260506203559 | 63 | 218 | 0.9 | 7.8 | 0.00 | 0.28 | 0.28 | 95 | 1007.0 |
| 20260506203058 | 63 | 266 | 1.7 | 7.8 | 0.00 | 0.28 | 0.28 | 95 | 1007.0 |
| 20260506202559 | 63 | 312 | 0.9 | 7.8 | 0.00 | 0.28 | 0.28 | 95 | 1007.0 |
| 20260506202059 | 63 | 0 | 0.0 | 5.2 | 0.00 | 0.28 | 0.28 | 95 | 1006.9 |
| 20260506201601 | 63 | 304 | 0.0 | 7.0 | 0.00 | 0.28 | 0.28 | 95 | 1006.9 |
| 20260506201100 | 62 | 0 | 0.9 | 7.0 | 0.00 | 0.28 | 0.28 | 95 | 1006.9 |
| 20260506200559 | 62 | 271 | 0.9 | 4.3 | 0.00 | 0.28 | 0.28 | 95 | 1007.1 |
| 20260506195603 | 62 | 271 | 0.0 | 6.1 | 0.00 | 0.28 | 0.28 | 95 | 1007.0 |
| 20260506195100 | 62 | 286 | 1.7 | 7.0 | 0.00 | 0.28 | 0.28 | 95 | 1007.0 |
| 20260506194558 | 62 | 295 | 1.7 | 7.0 | 0.00 | 0.28 | 0.28 | 95 | 1007.1 |
| 20260506194058 | 62 | 298 | 0.9 | 4.3 | 0.00 | 0.28 | 0.28 | 95 | 1007.2 |
| 20260506193558 | 62 | 304 | 0.0 | 2.6 | 0.00 | 0.28 | 0.28 | 95 | 1007.2 |
| 20260506193108 | 62 | 0 | 0.0 | 7.0 | 0.00 | 0.28 | 0.28 | 95 | 1007.2 |
| 20260506192559 | 61 | 0 | 1.7 | 7.0 | 0.00 | 0.28 | 0.28 | 95 | 1007.2 |
| 20260506192059 | 61 | 277 | 0.9 | 5.2 | 0.00 | 0.28 | 0.28 | 95 | 1007.3 |
| 20260506191601 | 61 | 276 | 0.9 | 6.1 | 0.00 | 0.28 | 0.28 | 95 | 1007.2 |
| 20260506191058 | 61 | 212 | 0.0 | 6.1 | 0.00 | 0.28 | 0.28 | 96 | 1007.3 |
| 20260506190558 | 62 | 265 | 0.9 | 6.1 | 0.00 | 0.28 | 0.28 | 96 | 1007.3 |
| 20260506190101 | 62 | 0 | 0.0 | 5.2 | 0.00 | 0.28 | 0.28 | 96 | 1007.3 |
| 20260506185559 | 62 | 292 | 0.9 | 5.2 | 0.00 | 0.28 | 0.28 | 96 | 1007.3 |
| 20260506185059 | 61 | 289 | 0.9 | 5.2 | 0.00 | 0.28 | 0.28 | 96 | 1007.3 |
| 20260506184604 | 62 | 307 | 0.0 | 4.3 | 0.00 | 0.28 | 0.28 | 96 | 1007.2 |
| 20260506184059 | 61 | 273 | 0.0 | 6.1 | 0.00 | 0.28 | 0.28 | 96 | 1007.2 |
| 20260506183601 | 61 | 266 | 0.9 | 6.1 | 0.00 | 0.28 | 0.28 | 96 | 1007.3 |
| 20260506183109 | 61 | 0 | 0.0 | 2.6 | 0.00 | 0.28 | 0.28 | 96 | 1007.4 |
| 20260506182558 | 60 | 0 | 0.0 | 2.6 | 0.00 | 0.28 | 0.28 | 96 | 1007.5 |
| 20260506182101 | 60 | 0 | 0.0 | 8.7 | 0.00 | 0.28 | 0.28 | 96 | 1007.6 |
| 20260506181601 | 60 | 299 | 0.9 | 8.7 | 0.01 | 0.28 | 0.28 | 96 | 1007.6 |
| 20260506181059 | 60 | 295 | 0.0 | 1.7 | 0.01 | 0.28 | 0.28 | 96 | 1007.6 |
| 20260506180559 | 60 | 145 | 0.0 | 1.7 | 0.02 | 0.28 | 0.28 | 96 | 1007.6 |
| 20260506180058 | 60 | 0 | 0.0 | 1.7 | 0.03 | 0.28 | 0.28 | 96 | 1007.7 |
| 20260506175559 | 60 | 0 | 0.0 | 1.7 | 0.03 | 0.28 | 0.28 | 96 | 1007.7 |
| 20260506175059 | 60 | 281 | 0.0 | 2.6 | 0.03 | 0.28 | 0.28 | 96 | 1007.7 |
| 20260506174608 | 60 | 0 | 0.0 | 7.8 | 0.03 | 0.28 | 0.28 | 96 | 1007.8 |
| 20260506174103 | 60 | 0 | 0.9 | 7.8 | 0.03 | 0.28 | 0.28 | 96 | 1007.8 |
| 20260506173558 | 59 | 243 | 0.9 | 7.8 | 0.03 | 0.28 | 0.28 | 96 | 1007.7 |
| 20260506173128 | 59 | 0 | 0.0 | 2.6 | 0.03 | 0.28 | 0.28 | 96 | 1007.6 |
| 20260506172559 | 59 | 0 | 0.0 | 3.5 | 0.03 | 0.28 | 0.28 | 96 | 1007.7 |
| 20260506172100 | 59 | 284 | 0.0 | 3.5 | 0.03 | 0.28 | 0.28 | 96 | 1007.6 |
| 20260506171600 | 59 | 0 | 0.0 | 3.5 | 0.02 | 0.27 | 0.27 | 95 | 1007.7 |
| 20260506171101 | 59 | 0 | 0.0 | 2.6 | 0.02 | 0.27 | 0.27 | 96 | 1007.8 |
| 20260506170559 | 59 | 332 | 0.0 | 2.6 | 0.01 | 0.26 | 0.26 | 96 | 1007.9 |
| 20260506170100 | 59 | 0 | 0.0 | 2.6 | 0.00 | 0.25 | 0.25 | 96 | 1007.8 |
| 20260506165559 | 59 | 272 | 0.0 | 2.6 | 0.00 | 0.25 | 0.25 | 96 | 1007.8 |
| 20260506164558 | 59 | 0 | 0.0 | 2.6 | 0.00 | 0.25 | 0.25 | 95 | 1007.5 |
| 20260506164058 | 59 | 0 | 0.0 | 0.0 | 0.00 | 0.25 | 0.25 | 1007.5 | |
| 20260506163103 | 59 | 0 | 0.0 | 0.9 | 0.01 | 0.25 | 0.25 | 95 | 1007.7 |
| 20260506162559 | 59 | 356 | 0.0 | 1.7 | 0.01 | 0.25 | 0.25 | 95 | 1007.7 |
| 20260506162101 | 59 | 0 | 0.0 | 1.7 | 0.02 | 0.25 | 0.25 | 95 | 1007.8 |
| 20260506161611 | 59 | 285 | 0.0 | 1.7 | 0.03 | 0.25 | 0.25 | 95 | 1007.8 |
| 20260506161058 | 59 | 0 | 0.0 | 1.7 | 0.03 | 0.25 | 0.25 | 95 | 1007.8 |
| 20260506160558 | 59 | 0 | 0.0 | 0.9 | 0.04 | 0.25 | 0.25 | 95 | 1007.7 |
| 20260506160110 | 59 | 0 | 0.0 | 0.9 | 0.05 | 0.25 | 0.25 | 95 | 1007.7 |
| 20260506155559 | 59 | 282 | 0.0 | 0.9 | 0.06 | 0.25 | 0.25 | 95 | 1007.7 |
| 20260506155059 | 59 | 0 | 0.0 | 0.9 | 0.07 | 0.25 | 0.25 | 95 | 1007.6 |
| 20260506154602 | 59 | 0 | 0.0 | 0.9 | 0.08 | 0.25 | 0.25 | 95 | 1007.5 |
| 20260506154059 | 59 | 0 | 0.0 | 0.9 | 0.08 | 0.24 | 0.24 | 95 | 1007.6 |
| 20260506153558 | 59 | 0 | 0.0 | 0.9 | 0.08 | 0.24 | 0.24 | 95 | 1007.6 |
| 20260506153100 | 59 | 0 | 0.0 | 0.9 | 0.08 | 0.24 | 0.24 | 95 | 1007.8 |
| 20260506152559 | 59 | 0 | 0.0 | 0.9 | 0.08 | 0.24 | 0.24 | 95 | 1007.9 |
| 20260506152100 | 59 | 0 | 0.0 | 0.9 | 0.08 | 0.23 | 0.23 | 95 | 1007.9 |
| 20260506151559 | 59 | 0 | 0.0 | 2.6 | 0.07 | 0.22 | 0.22 | 95 | 1008.0 |
| 20260506151059 | 59 | 0 | 0.0 | 2.6 | 0.08 | 0.22 | 0.22 | 95 | 1008.0 |
| 20260506150601 | 59 | 0 | 0.0 | 0.9 | 0.08 | 0.21 | 0.21 | 95 | 1008.1 |
| 20260506150106 | 59 | 0 | 0.0 | 0.9 | 0.07 | 0.20 | 0.20 | 95 | 1008.3 |
| 20260506145559 | 59 | 0 | 0.0 | 0.9 | 0.06 | 0.19 | 0.19 | 95 | 1008.2 |
| 20260506145058 | 59 | 0 | 0.0 | 3.5 | 0.05 | 0.18 | 0.18 | 95 | 1008.1 |
| 20260506144613 | 59 | 0 | 0.0 | 3.5 | 0.04 | 0.17 | 0.17 | 95 | 1008.1 |
| 20260506144058 | 59 | 0 | 0.9 | 4.3 | 0.03 | 0.16 | 0.16 | 95 | 1008.0 |
| 20260506143559 | 59 | 250 | 0.9 | 4.3 | 0.03 | 0.16 | 0.16 | 95 | 1008.1 |
| 20260506143059 | 59 | 257 | 0.0 | 6.1 | 0.03 | 0.16 | 0.16 | 95 | 1008.1 |
| 20260506142600 | 59 | 218 | 0.0 | 6.1 | 0.03 | 0.16 | 0.16 | 95 | 1008.1 |
| 20260506142059 | 59 | 0 | 0.0 | 6.1 | 0.02 | 0.15 | 0.15 | 95 | 1007.9 |
| 20260506141559 | 59 | 0 | 0.0 | 0.9 | 0.02 | 0.15 | 0.15 | 95 | 1007.9 |
| 20260506141059 | 59 | 0 | 0.0 | 0.9 | 0.01 | 0.14 | 0.14 | 95 | 1008.1 |
| 20260506140124 | 59 | 0 | 0.0 | 0.9 | 0.03 | 0.12 | 0.12 | 95 | 1008.2 |
| 20260506135559 | 59 | 0 | 0.0 | 1.7 | 0.02 | 0.11 | 0.11 | 95 | 1008.1 |
| 20260506135102 | 59 | 0 | 0.0 | 1.7 | 0.01 | 0.10 | 0.10 | 95 | 1008.1 |
| 20260506134600 | 59 | 0 | 0.0 | 0.9 | 0.01 | 0.10 | 0.10 | 95 | 1008.2 |
| 20260506133559 | 59 | 0 | 0.0 | 0.0 | 0.06 | 0.09 | 0.09 | 95 | 1008.0 |
| 20260506133137 | 59 | 0 | 0.0 | 0.0 | 0.07 | 0.09 | 0.09 | 95 | 1008.1 |
| 20260506132559 | 59 | 0 | 0.0 | 0.0 | 0.07 | 0.09 | 0.09 | 94 | 1008.4 |
| 20260506132058 | 59 | 0 | 0.0 | 0.0 | 0.06 | 0.08 | 0.08 | 94 | 1008.5 |
| 20260506131558 | 59 | 0 | 0.0 | 0.9 | 0.06 | 0.07 | 0.07 | 94 | 1008.5 |
| 20260506131059 | 59 | 0 | 0.0 | 0.9 | 0.06 | 0.07 | 0.07 | 94 | 1008.6 |
| 20260506130558 | 59 | 310 | 0.0 | 0.9 | 0.05 | 0.06 | 0.06 | 94 | 1008.5 |
| 20260506130140 | 59 | 0 | 0.0 | 0.9 | 0.04 | 0.05 | 0.05 | 94 | 1008.6 |
| 20260506125559 | 59 | 234 | 0.0 | 1.7 | 0.05 | 0.05 | 0.05 | 94 | 1008.6 |
| 20260506125059 | 59 | 0 | 0.0 | 1.7 | 0.04 | 0.04 | 0.04 | 93 | 1008.6 |
| 20260506124558 | 59 | 290 | 0.0 | 2.6 | 0.04 | 0.04 | 0.04 | 93 | 1008.7 |
| 20260506124059 | 59 | 0 | 0.0 | 2.6 | 0.03 | 0.03 | 0.03 | 93 | 1008.7 |
| 20260506123559 | 59 | 297 | 0.9 | 2.6 | 0.03 | 0.03 | 0.03 | 93 | 1008.9 |
| 20260506123102 | 59 | 269 | 0.0 | 2.6 | 0.02 | 0.02 | 0.02 | 93 | 1008.8 |
| 20260506122559 | 60 | 0 | 0.0 | 1.7 | 0.02 | 0.02 | 0.02 | 92 | 1008.8 |
| 20260506122058 | 60 | 312 | 0.0 | 1.7 | 0.02 | 0.02 | 0.02 | 91 | 1008.7 |
| 20260506121603 | 60 | 331 | 0.0 | 1.7 | 0.01 | 0.01 | 0.01 | 90 | 1008.6 |
| 20260506121100 | 62 | 222 | 0.0 | 6.1 | 0.01 | 0.01 | 0.01 | 88 | 1008.5 |
| 20260506120600 | 63 | 0 | 0.9 | 6.1 | 0.01 | 0.01 | 0.01 | 79 | 1008.5 |
| 20260506120105 | 64 | 228 | 0.0 | 2.6 | 0.01 | 0.01 | 0.01 | 73 | 1008.4 |
| 20260506115559 | 64 | 160 | 0.0 | 2.6 | 0.00 | 0.00 | 0.00 | 72 | 1008.3 |
| 20260506115058 | 65 | 0 | 0.0 | 4.3 | 0.00 | 0.00 | 0.00 | 70 | 1008.2 |
| 20260506114606 | 65 | 269 | 0.0 | 7.0 | 0.00 | 0.00 | 0.00 | 69 | 1008.2 |
| 20260506114059 | 66 | 305 | 0.9 | 7.0 | 0.00 | 0.00 | 0.00 | 66 | 1008.3 |
| 20260506113601 | 66 | 0 | 0.9 | 7.0 | 0.00 | 0.00 | 0.00 | 66 | 1008.2 |
| 20260506113058 | 66 | 290 | 1.7 | 4.3 | 0.00 | 0.00 | 0.00 | 64 | 1008.2 |
| 20260506112600 | 66 | 52 | 0.0 | 3.5 | 0.00 | 0.00 | 0.00 | 63 | 1008.1 |
| 20260506112059 | 66 | 0 | 0.0 | 3.5 | 0.00 | 0.00 | 0.00 | 63 | 1008.1 |
| 20260506111559 | 66 | 0 | 0.0 | 1.7 | 0.00 | 0.00 | 0.00 | 63 | 1008.0 |
| 20260506111059 | 66 | 0 | 0.0 | 1.7 | 0.00 | 0.00 | 0.00 | 62 | 1007.9 |
| 20260506110559 | 66 | 0 | 0.0 | 0.9 | 0.00 | 0.00 | 0.00 | 61 | 1007.8 |
| 20260506110103 | 67 | 0 | 0.0 | 2.6 | 0.00 | 0.00 | 0.00 | 61 | 1007.7 |
| 20260506105559 | 67 | 240 | 0.0 | 2.6 | 0.00 | 0.00 | 0.00 | 61 | 1007.6 |
| 20260506105059 | 67 | 0 | 0.0 | 1.7 | 0.00 | 0.00 | 0.00 | 60 | 1007.5 |
| 20260506104607 | 67 | 263 | 0.0 | 1.7 | 0.00 | 0.00 | 0.00 | 60 | 1007.4 |
| 20260506104058 | 67 | 0 | 0.0 | 1.7 | 0.00 | 0.00 | 0.00 | 60 | 1007.3 |
| 20260506103558 | 67 | 288 | 0.0 | 3.5 | 0.00 | 0.00 | 0.00 | 60 | 1007.3 |
| 20260506103106 | 67 | 263 | 0.0 | 3.5 | 0.00 | 0.00 | 0.00 | 60 | 1007.4 |
| 20260506102559 | 67 | 134 | 0.9 | 3.5 | 0.00 | 0.00 | 0.00 | 59 | 1007.1 |
| 20260506102101 | 67 | 256 | 0.0 | 2.6 | 0.00 | 0.00 | 0.00 | 59 | 1007.1 |
| 20260506101602 | 67 | 0 | 0.9 | 4.3 | 0.00 | 0.00 | 0.00 | 59 | 1007.2 |
| 20260506101059 | 67 | 0 | 0.0 | 4.3 | 0.00 | 0.00 | 0.00 | 58 | 1007.0 |
| 20260506100559 | 67 | 291 | 0.9 | 3.5 | 0.00 | 0.00 | 0.00 | 58 | 1006.8 |
| 20260506100110 | 67 | 123 | 0.0 | 5.2 | 0.00 | 0.00 | 0.00 | 57 | 1007.1 |
| 20260506095559 | 68 | 0 | 1.7 | 5.2 | 0.00 | 0.00 | 0.00 | 57 | 1007.2 |
| 20260506095059 | 68 | 274 | 0.9 | 2.6 | 0.00 | 0.00 | 0.00 | 57 | 1007.3 |
| 20260506094606 | 68 | 165 | 0.9 | 7.0 | 0.00 | 0.00 | 0.00 | 56 | 1007.3 |
| 20260506094058 | 68 | 236 | 0.0 | 7.0 | 0.00 | 0.00 | 0.00 | 56 | 1007.3 |
| 20260506093559 | 68 | 0 | 0.9 | 6.1 | 0.00 | 0.00 | 0.00 | 56 | 1007.4 |
| 20260506093102 | 68 | 297 | 0.0 | 3.5 | 0.00 | 0.00 | 0.00 | 56 | 1007.3 |
| 20260506092559 | 68 | 0 | 0.0 | 3.5 | 0.00 | 0.00 | 0.00 | 55 | 1007.4 |
| 20260506092059 | 68 | 257 | 0.9 | 3.5 | 0.00 | 0.00 | 0.00 | 55 | 1007.5 |
| 20260506091601 | 68 | 0 | 0.0 | 2.6 | 0.00 | 0.00 | 0.00 | 55 | 1007.4 |
| 20260506091059 | 68 | 147 | 0.0 | 2.6 | 0.00 | 0.00 | 0.00 | 55 | 1007.4 |
| 20260506090559 | 67 | 271 | 0.0 | 2.6 | 0.00 | 0.00 | 0.00 | 55 | 1007.4 |
| 20260506090057 | 67 | 0 | 0.0 | 2.6 | 0.00 | 0.00 | 0.00 | 54 | 1007.4 |
| 20260506085558 | 67 | 0 | 0.0 | 2.6 | 0.00 | 0.00 | 0.00 | 54 | 1007.4 |
| 20260506085101 | 67 | 0 | 0.0 | 3.5 | 0.00 | 0.00 | 0.00 | 54 | 1007.5 |
| 20260506084600 | 67 | 0 | 0.9 | 3.5 | 0.00 | 0.00 | 0.00 | 54 | 1007.4 |
| 20260506084059 | 67 | 0 | 0.0 | 1.7 | 0.00 | 0.00 | 0.00 | 54 | 1007.4 |
| 20260506083559 | 67 | 0 | 0.0 | 1.7 | 0.00 | 0.00 | 0.00 | 54 | 1007.6 |
| 20260506083100 | 68 | 0 | 0.0 | 4.3 | 0.00 | 0.00 | 0.00 | 53 | 1007.6 |
| 20260506082559 | 68 | 0 | 0.0 | 4.3 | 0.00 | 0.00 | 0.00 | 52 | 1007.6 |
| 20260506082059 | 68 | 313 | 0.0 | 4.3 | 0.00 | 0.00 | 0.00 | 52 | 1007.6 |
| 20260506081609 | 67 | 283 | 0.0 | 3.5 | 0.00 | 0.00 | 0.00 | 52 | 1007.7 |
| 20260506081059 | 67 | 0 | 0.0 | 2.6 | 0.00 | 0.00 | 0.00 | 53 | 1007.8 |
| 20260506080559 | 67 | 283 | 0.0 | 0.9 | 0.00 | 0.00 | 0.00 | 53 | 1007.7 |
| 20260506080104 | 66 | 0 | 0.0 | 1.7 | 0.00 | 0.00 | 0.00 | 53 | 1007.7 |
| 20260506073100 | 67 | 0 | 0.0 | 0.9 | 0.00 | 0.00 | 0.00 | 51 | 1007.7 |
| 20260506072602 | 67 | 0 | 0.0 | 0.9 | 0.00 | 0.00 | 0.00 | 51 | 1007.8 |
| 20260506072059 | 68 | 0 | 0.0 | 0.9 | 0.00 | 0.00 | 0.00 | 50 | 1007.8 |
| 20260506071558 | 68 | 0 | 0.0 | 3.5 | 0.00 | 0.00 | 0.00 | 49 | 1007.7 |
| 20260506071101 | 68 | 0 | 0.0 | 3.5 | 0.00 | 0.00 | 0.00 | 48 | 1007.8 |
| 20260506070559 | 69 | 0 | 0.0 | 6.1 | 0.00 | 0.00 | 0.00 | 48 | 1007.8 |
| 20260506062100 | 64 | 0 | 0.0 | 1.7 | 0.00 | 0.00 | 0.00 | 54 | 1008.5 |
| 20260506061558 | 64 | 0 | 0.0 | 2.6 | 0.00 | 0.00 | 0.00 | 56 | 1008.6 |
| 20260506061059 | 64 | 0 | 0.0 | 2.6 | 0.00 | 0.00 | 0.00 | 56 | 1008.7 |
| 20260506060559 | 64 | 0 | 0.0 | 2.6 | 0.00 | 0.00 | 0.00 | 56 | 1008.6 |
| 20260506051058 | 58 | 0 | 0.0 | 2.6 | 0.00 | 0.00 | 0.00 | 72 | 1009.2 |
| 20260506050559 | 58 | 0 | 0.0 | 2.6 | 0.00 | 0.00 | 0.00 | 73 | 1009.2 |
| 20260506045058 | 57 | 0 | 0.0 | 0.9 | 0.00 | 0.00 | 0.00 | 77 | 1009.1 |
| 20260506044600 | 57 | 0 | 0.0 | 0.9 | 0.00 | 0.00 | 0.00 | 77 | 1009.1 |
| 20260506044058 | 57 | 0 | 0.0 | 0.9 | 0.00 | 0.00 | 0.00 | 79 | 1009.1 |
| 20260506043558 | 57 | 0 | 0.0 | 0.9 | 0.00 | 0.00 | 0.00 | 79 | 1009.0 |
| 20260506043109 | 57 | 0 | 0.0 | 0.9 | 0.00 | 0.00 | 0.00 | 79 | 1009.0 |
| 20260506042558 | 57 | 0 | 0.0 | 0.9 | 0.00 | 0.00 | 0.00 | 79 | 1009.0 |
| 20260506042059 | 57 | 0 | 0.0 | 0.0 | 0.00 | 0.00 | 0.00 | 79 | 1009.1 |
| 20260506041559 | 57 | 0 | 0.0 | 0.0 | 0.00 | 0.00 | 0.00 | 79 | 1009.2 |
| 20260506041058 | 57 | 0 | 0.0 | 0.0 | 0.00 | 0.00 | 0.00 | 79 | 1009.2 |
| 20260506040600 | 57 | 0 | 0.0 | 0.0 | 0.00 | 0.00 | 0.00 | 79 | 1009.2 |
| 20260506040059 | 57 | 0 | 0.0 | 0.0 | 0.00 | 0.00 | 0.00 | 79 | 1009.3 |
| 20260506035559 | 57 | 0 | 0.0 | 0.0 | 0.00 | 0.00 | 0.00 | 79 | 1009.3 |
| 20260506035059 | 57 | 0 | 0.0 | 0.0 | 0.00 | 0.00 | 0.00 | 79 | 1009.4 |
| 20260506034615 | 57 | 0 | 0.0 | 0.0 | 0.00 | 0.00 | 0.00 | 78 | 1009.4 |
| 20260506034058 | 58 | 0 | 0.0 | 0.0 | 0.00 | 0.00 | 0.00 | 78 | 1009.5 |
| 20260506033558 | 58 | 0 | 0.0 | 0.0 | 0.00 | 0.00 | 0.00 | 78 | 1009.4 |
| 20260506033056 | 57 | 0 | 0.0 | 0.0 | 0.00 | 0.00 | 0.00 | 79 | 1009.3 |
| 20260506032559 | 57 | 0 | 0.0 | 0.0 | 0.00 | 0.00 | 0.00 | 78 | 1009.3 |
| 20260506032059 | 58 | 0 | 0.0 | 0.0 | 0.00 | 0.00 | 0.00 | 78 | 1009.5 |
| 20260506031604 | 58 | 0 | 0.0 | 0.0 | 0.00 | 0.00 | 0.00 | 77 | 1009.4 |